This is the latest recevied weather packets stored in our database for station/object KK7KHO. If no packets are shown the sender has not sent any weather packets the latest 10 day(s).
| Time | Temp. | Humidity | Pressure | Rain* | Wind** | Luminosity | Snow |
|---|---|---|---|---|---|---|---|
| 1777730157 | 10° C | 99% | 1016.5 hPa | 0 mm | - | 35 W/m² | - |
| 1777729854 | 9.44° C | 99% | 1016.5 hPa | 0 mm | - | 33 W/m² | - |
| 1777729550 | 9.44° C | 99% | 1016.5 hPa | 0 mm | - | 30 W/m² | - |
| 1777729247 | 9.44° C | 99% | 1016.7 hPa | 0 mm | - | 27 W/m² | - |
| 1777728944 | 9.44° C | 99% | 1016.6 hPa | 0 mm | - | 24 W/m² | - |
| 1777728641 | 9.44° C | 99% | 1016.9 hPa | 0 mm | - | 20 W/m² | - |
| 1777728338 | 9.44° C | 99% | 1016.7 hPa | 0 mm | - | 15 W/m² | - |
| 1777728034 | 9.44° C | 99% | 1016.7 hPa | 0 mm | - | 11 W/m² | - |
| 1777727731 | 9.44° C | 99% | 1016.7 hPa | 0 mm | - | 9 W/m² | - |
| 1777727428 | 9.44° C | 99% | 1016.8 hPa | 0 mm | - | 7 W/m² | - |
| 1777727126 | 9.44° C | 99% | 1016.7 hPa | 0 mm | - | 5 W/m² | - |
| 1777726824 | 8.89° C | 99% | 1016.7 hPa | 0 mm | - | 4 W/m² | - |
| 1777726520 | 8.89° C | 99% | 1016.8 hPa | 0 mm | - | 3 W/m² | - |
| 1777726217 | 8.89° C | 99% | 1016.8 hPa | 0 mm | - | 2 W/m² | - |
| 1777725914 | 8.89° C | 99% | 1016.8 hPa | 0 mm | - | 1 W/m² | - |
| 1777725611 | 8.89° C | 99% | 1016.6 hPa | 0 mm | - | 1 W/m² | - |
| 1777725310 | 8.89° C | 99% | 1016.6 hPa | 0 mm | - | 0 W/m² | - |
| 1777725006 | 8.89° C | 99% | 1016.8 hPa | 0 mm | - | 0 W/m² | - |
| 1777724702 | 8.89° C | 99% | 1016.6 hPa | 0 mm | - | 0 W/m² | - |
| 1777724399 | 8.89° C | 99% | 1016.8 hPa | 0 mm | - | 0 W/m² | - |
| 1777724096 | 8.89° C | 99% | 1016.8 hPa | 0 mm | - | 0 W/m² | - |
| 1777723794 | 8.89° C | 99% | 1016.7 hPa | 0 mm | - | 0 W/m² | - |
| 1777723490 | 8.89° C | 99% | 1016.3 hPa | 0 mm | - | 0 W/m² | - |
| 1777723187 | 8.89° C | 98% | 1016.3 hPa | 0 mm | - | 0 W/m² | - |
| 1777722885 | 8.89° C | 98% | 1016.3 hPa | 0 mm | - | 0 W/m² | - |
* Rain latest hour (hover to see other rain measurements)
** Current wind speed in m/s (hover to see current wind gust speed)